Weather History for KLLQ - March, 2013

Change the Weather History Date:

Saturday, March 30, 2013

  Actual Average (KPBF) Record (KPBF)
Temperature  
Mean Temperature 60 °F 58 °F  
Max Temperature 66 °F 70 °F 89 °F (1946)
Min Temperature 55 °F 47 °F 28 °F (1964)
Degree Days  
Heating Degree Days 4 8  
Month to date heating degree days 341  
Since 1 July heating degree days 2729  
Cooling Degree Days 0 1  
Month to date cooling degree days 15  
Year to date cooling degree days 18  
Growing Degree Days 10 (Base 50)    
Moisture  
Dew Point 58 °F    
Average Humidity 90    
Maximum Humidity 94    
Minimum Humidity 75    
Precipitation  
Precipitation 0.51 in 0.17 in 3.02 in (1961)
Month to date precipitation 5.23  
Year to date precipitation 13.05  
Snow  
Snow 0.00 in 0.00 in - ()
Month to date snowfall 0.0  
Since 1 July snowfall 3.1  
Snow Depth -    
Sea Level Pressure  
Sea Level Pressure 30.03 in    
Wind  
Wind Speed 4 mph (SW)    
Max Wind Speed 10 mph    
Max Gust Speed 18 mph    
Visibility 7 miles    
Events Rain , Thunderstorm    
T = Trace of Precipitation, MM = Missing Value Source: NWS Daily Summary

Daily Weather History Graph

Daily Weather History Graph

Search for Another Location

Airport or City:

Trip Planner

Search our weather history database for the weather conditions in past years. The results will help you decide how hot, cold, wet, or windy it might be!

Date:

Astronomy

Mar. 30, 2013 Rise Set
Actual Time 6:56 AM CDT 7:26 PM CDT
Civil Twilight 6:31 AM CDT 7:51 PM CDT
Nautical Twilight 6:02 AM CDT 8:20 PM CDT
Astronomical Twilight 5:32 AM CDT 8:50 PM CDT
Moon 11:21 PM CDT (3/30) 9:03 AM CDT (3/30)
Length of Visible Light 13h 19m
Length of Day
12h 29m
Waning Gibbous, 86% of the Moon is Illuminated
Mar 30
Waning Gibbous
Apr 2
Last Quarter
Apr 10
New
Apr 18
First Quarter
Apr 25
Full

Hourly Weather History & Observations

Time (CDT) Temp. Dew Point Humidity Pressure Visibility Wind Dir Wind Speed Gust Speed Precip Events Conditions
12:53 AM 57.0 °F 52.0 °F 83% 30.14 in 10.0 mi ENE 4.6 mph - N/A   Mostly Cloudy
1:53 AM 57.0 °F 52.0 °F 83% 30.14 in 10.0 mi ENE 4.6 mph - N/A   Overcast
2:53 AM 57.0 °F 53.1 °F 87% 30.12 in 10.0 mi East 4.6 mph - N/A   Overcast
3:53 AM 55.9 °F 53.1 °F 90% 30.10 in 10.0 mi East 4.6 mph - N/A   Scattered Clouds
4:53 AM 55.9 °F 53.1 °F 90% 30.09 in 10.0 mi East 3.5 mph - N/A   Overcast
5:53 AM 55.9 °F 52.0 °F 87% 30.08 in 10.0 mi Calm Calm - N/A   Overcast
6:53 AM 55.9 °F 52.0 °F 87% 30.09 in 10.0 mi Calm Calm - 0.00 in Rain Light Rain
7:53 AM 55.0 °F 53.1 °F 93% 30.10 in 4.0 mi Calm Calm - 0.02 in Rain Rain
8:53 AM 57.9 °F 55.0 °F 90% 30.09 in 9.0 mi SSW 6.9 mph - 0.01 in   Mostly Cloudy
9:53 AM 60.1 °F 57.0 °F 90% 30.07 in 10.0 mi SSW 6.9 mph - 0.00 in   Overcast
10:53 AM 61.0 °F 57.9 °F 90% 30.07 in 8.0 mi SSW 4.6 mph - 0.00 in Rain Light Rain
11:15 AM 60.8 °F 59.0 °F 94% 30.07 in 6.0 mi South 4.6 mph - 0.02 in Rain Light Rain
11:23 AM 60.8 °F 57.2 °F 88% 30.06 in 5.0 mi South 4.6 mph - 0.02 in Rain Light Rain
11:38 AM 60.8 °F 59.0 °F 94% 30.06 in 7.0 mi South 3.5 mph - 0.03 in Rain Light Rain
11:53 AM 61.0 °F 59.0 °F 93% 30.06 in 3.0 mi Calm Calm - 0.06 in Rain Rain
12:17 PM 60.8 °F 59.0 °F 94% 30.05 in 5.0 mi SSE 3.5 mph - 0.01 in Rain Light Rain
12:32 PM 60.8 °F 59.0 °F 94% 30.05 in 2.5 mi South 4.6 mph - 0.03 in Rain Rain
12:39 PM 62.6 °F 60.8 °F 94% 30.05 in 2.0 mi South 4.6 mph - 0.05 in Rain Rain
12:43 PM 62.6 °F 60.8 °F 94% 30.04 in 3.0 mi SW 4.6 mph - 0.05 in Rain Light Rain
12:53 PM 63.0 °F 60.1 °F 90% 30.04 in 8.0 mi Variable 4.6 mph - 0.06 in Rain Light Rain
1:46 PM 62.6 °F 59.0 °F 88% 30.01 in 1.8 mi South 6.9 mph - 0.13 in Rain Heavy Rain
1:53 PM 62.1 °F 59.0 °F 90% 30.01 in 1.2 mi South 6.9 mph - 0.20 in Rain Heavy Rain
2:10 PM 60.8 °F 59.0 °F 94% 30.01 in 3.0 mi WNW 6.9 mph - 0.09 in Rain Light Rain
2:24 PM 62.6 °F 59.0 °F 88% 30.00 in 10.0 mi West 5.8 mph - 0.09 in Rain Light Rain
2:49 PM 62.6 °F 60.8 °F 94% 29.99 in 4.0 mi NW 4.6 mph - 0.11 in Rain Light Rain
2:53 PM 62.1 °F 60.1 °F 93% 29.99 in 3.0 mi NW 4.6 mph - 0.13 in Rain Rain
3:00 PM 62.6 °F 60.8 °F 94% 29.99 in 2.0 mi West 4.6 mph - 0.02 in Rain Rain
3:03 PM 62.6 °F 59.0 °F 88% 29.99 in 3.0 mi WNW 5.8 mph - 0.02 in Rain Light Rain
3:13 PM 62.6 °F 59.0 °F 88% 29.99 in 10.0 mi West 8.1 mph - 0.02 in Rain Light Rain
3:31 PM 62.6 °F 60.8 °F 94% 29.97 in 10.0 mi WSW 8.1 mph 18.4 mph 0.02 in   Mostly Cloudy
3:48 PM 64.4 °F 60.8 °F 88% 29.97 in 10.0 mi West 10.4 mph - 0.02 in   Scattered Clouds
3:53 PM 64.0 °F 60.1 °F 87% 29.96 in 10.0 mi WSW 9.2 mph - 0.02 in   Partly Cloudy
4:53 PM 64.9 °F 57.9 °F 78% 29.97 in 10.0 mi WSW 5.8 mph - N/A   Overcast
5:53 PM 66.9 °F 59.0 °F 76% 29.96 in 10.0 mi Variable 5.8 mph - N/A   Mostly Cloudy
6:53 PM 66.0 °F 57.9 °F 75% 29.95 in 10.0 mi Calm Calm - N/A   Partly Cloudy
7:53 PM 61.0 °F 59.0 °F 93% 29.96 in 10.0 mi Calm Calm - N/A   Partly Cloudy
8:53 PM 61.0 °F 57.9 °F 90% 29.97 in 10.0 mi Calm Calm - N/A   Overcast
9:53 PM 61.0 °F 59.0 °F 93% 29.97 in 10.0 mi Calm Calm - N/A   Mostly Cloudy
10:53 PM 61.0 °F 59.0 °F 93% 29.97 in 9.0 mi Calm Calm - 0.00 in   Mostly Cloudy
11:18 PM 60.8 °F 59.0 °F 94% 29.97 in 6.0 mi Calm Calm - N/A Thunderstorm Overcast
11:51 PM 60.8 °F 59.0 °F 94% 29.97 in 7.0 mi Calm Calm - 0.01 in   Overcast
11:53 PM 61.0 °F 59.0 °F 93% 29.96 in 7.0 mi Calm Calm - 0.01 in   Overcast